Location: Unspecified
(48.2082°N, 0.0000°E)
Time: 08:52:45
(UTC+00:00)

S-56A Canister/Altair - Pass Details

Date: 25 June 2019
Orbit: 633 x 2499 km, 38.9° (Epoch: 24 August)

Event Time Altitude Azimuth Distance (km) Brightness Sun altitude
Rises 11:52:41 0° 182° (S) 5,896 12.4 65.1°
Reaches altitude 10° 12:01:43 10° 150° (SSE) 4,427 11.9 65.2°
Maximum altitude 12:03:38 11° 140° (SE) 4,260 11.8 65.2°
Drops below altitude 10° 12:05:28 10° 131° (SE) 4,175 11.7 65.2°
Sets 12:12:29 0° 96° (E) 4,614 11.5 65.1°
